Home   Weather   Umm al-Quwain   Past weeks
Flag for United Arab Emirates

Past Weather in Umm al-Quwain, Umm al-Quwain, United Arab Emirates — Yesterday and Last 2 Weeks

Now
72 °F

Clear.


Feels Like: 72 °F
Forecast: 82 / 67 °F
Wind: 7 mph from South

Location: Sharjah International Airport

Current Time: Apr 6, 2020 at 6:45:57 am

Latest Report: Apr 6, 2020 at 6:00 am


Visibility: 10 mi

Pressure: 29.92 "Hg

Humidity: 78%

Dew Point: 64 °F

Location of Umm al-QuwainLocation

Past Weather in Umm al-Quwain — Graph

°F

Umm al-Quwain Temperature Yesterday

Maximum temperature yesterday: 93 °F (at 12:00 pm)
Minimum temperature yesterday: 73 °F (at 6:00 am)
Average temperature yesterday: 85 °F

High & Low Weather Summary for the Past Weeks

 TemperatureHumidityPressure
High99 °F (Apr 3, 12:00 pm)100% (Apr 2, 5:00 am)30.01 "Hg (Apr 2, 5:00 am)
Low61 °F (Mar 26, 6:00 am)15% (Apr 3, 12:00 pm)29.68 "Hg (Mar 22, 6:00 pm)
Average77 °F56%29.88 "Hg
* Reported Mar 22 5:00 am — Apr 6 5:00 am, Umm al-Quwain. Weather by CustomWeather, © 2020

Note: Actual official high and low records may vary slightly from our data, if they occured in-between our weather recording intervals... More about our weather records

Umm al-Quwain Weather History for the Previous 24 Hours

Scroll right to see more
 ConditionsComfort  
Time TempWeatherWind HumidityBarometerVisibility
5:00 am
Mon, Apr 6
72 °FClear.7 mph78%29.89 "Hg10 mi
4:00 am73 °FClear.6 mph74%29.89 "Hg10 mi
3:00 am75 °FClear.6 mph65%29.89 "Hg10 mi
2:00 am75 °FClear.7 mph65%29.89 "Hg10 mi
1:00 am77 °FClear.8 mph61%29.89 "Hg10 mi
12:00 am81 °FClear.5 mph48%29.92 "Hg10 mi
11:00 pm
Sun, Apr 5
82 °FClear.5 mph42%29.95 "Hg10 mi
10:00 pm82 °FClear.8 mph45%29.95 "Hg10 mi
9:00 pm84 °FClear.6 mph43%29.92 "Hg10 mi
8:00 pm84 °FClear.6 mph37%29.92 "Hg10 mi
7:00 pm88 °FClear.7 mph29%29.92 "Hg10 mi
6:00 pm90 °FSunny.9 mph27%29.89 "Hg10 mi
5:00 pm91 °FSunny.10 mph20%29.89 "Hg10 mi
4:00 pm91 °FSunny.13 mph18%29.92 "Hg10 mi
3:00 pm91 °FSunny.15 mph24%29.92 "Hg10 mi
2:00 pm93 °FPassing clouds.15 mph16%29.95 "HgN/A
1:00 pm93 °FPassing clouds.8 mph20%29.95 "HgN/A
12:00 pm93 °FPassing clouds.8 mph19%29.95 "HgN/A
11:00 am91 °FPassing clouds.6 mph24%29.95 "HgN/A
10:00 am86 °FSunny.8 mph38%29.98 "Hg10 mi
9:00 am84 °FSunny.10 mph51%29.98 "Hg10 mi
8:00 am81 °FSunny.1 mph51%29.95 "Hg10 mi
7:00 am75 °FSunny.7 mph61%29.92 "Hg10 mi
6:00 am73 °FClear.No wind61%29.92 "Hg10 mi
Weather by CustomWeather, © 2020

See weather overview

Advertising